This is the latest recevied weather packets stored in our database for station/object KK7RJD. If no packets are shown the sender has not sent any weather packets the latest 10 day(s).
| Time | Temp. | Humidity | Pressure | Rain* | Wind** | Luminosity | Snow |
|---|---|---|---|---|---|---|---|
| 1777760121 | 22.78° C | 16% | 1014.6 hPa | 0 mm | - | 279 W/m² | - |
| 1777759819 | 23.33° C | 17% | 1014.8 hPa | 0 mm | - | 629 W/m² | - |
| 1777759514 | 23.89° C | 16% | 1014.8 hPa | 0 mm | - | 605 W/m² | - |
| 1777759211 | 23.33° C | 18% | 1014.8 hPa | 0 mm | - | 626 W/m² | - |
| 1777758909 | 23.33° C | 17% | 1015.1 hPa | 0 mm | - | 728 W/m² | - |
| 1777758605 | 22.22° C | 18% | 1015 hPa | 0 mm | - | 694 W/m² | - |
| 1777758302 | 22.22° C | 17% | 1015.2 hPa | 0 mm | - | 575 W/m² | - |
| 1777758000 | 22.78° C | 17% | 1015.1 hPa | 0 mm | - | 638 W/m² | - |
| 1777757696 | 22.78° C | 17% | 1015.3 hPa | 0 mm | - | 703 W/m² | - |
| 1777757395 | 22.78° C | 18% | 1015.4 hPa | 0 mm | - | 726 W/m² | - |
| 1777757093 | 22.78° C | 17% | 1015.3 hPa | 0 mm | - | 693 W/m² | - |
| 1777756790 | 22.78° C | 17% | 1015.3 hPa | 0 mm | - | 738 W/m² | - |
| 1777756486 | 22.78° C | 16% | 1015.4 hPa | 0 mm | - | 338 W/m² | - |
| 1777756184 | 22.78° C | 17% | 1015.8 hPa | 0 mm | - | 592 W/m² | - |
| 1777755880 | 22.78° C | 18% | 1015.7 hPa | 0 mm | - | 720 W/m² | - |
| 1777755577 | 22.78° C | 17% | 1015.7 hPa | 0 mm | - | 760 W/m² | - |
| 1777755273 | 22.78° C | 17% | 1015.8 hPa | 0 mm | - | 662 W/m² | - |
| 1777754971 | 22.78° C | 17% | 1015.8 hPa | 0 mm | - | 767 W/m² | - |
| 1777754667 | 23.33° C | 17% | 1016 hPa | 0 mm | - | 789 W/m² | - |
| 1777754365 | 23.89° C | 17% | 1016 hPa | 0 mm | - | 839 W/m² | - |
| 1777754063 | 22.78° C | 18% | 1016 hPa | 0 mm | - | 806 W/m² | - |
| 1777753758 | 22.78° C | 17% | 1016.2 hPa | 0 mm | - | 863 W/m² | - |
| 1777753455 | 22.22° C | 18% | 1016.2 hPa | 0 mm | - | 887 W/m² | - |
| 1777753154 | 22.22° C | 18% | 1016.5 hPa | 0 mm | - | 840 W/m² | - |
| 1777752849 | 22.78° C | 17% | 1016.4 hPa | 0 mm | - | 892 W/m² | - |
* Rain latest hour (hover to see other rain measurements)
** Current wind speed in m/s (hover to see current wind gust speed)